Location: Jablonec nad Nisou
(50.7170°N, 15.1830°E)
Time: 14:13:33
(UTC+02:00)

ISS - Pass Details

Date: 27 March 2019
Orbit: 408 x 410 km, 51.6° (Epoch: 24 April)

Event Time Altitude Azimuth Distance (km) Brightness Sun altitude
Rises 20:09:04 0° 265° (W) 2,335 1.1 -16.9°
Reaches altitude 10° 20:11:10 10° 267° (W) 1,474 -0.1 -17.2°
Maximum altitude 20:14:28 76° 354° (N) 426 -3.8 -17.6°
Enters shadow 20:15:16 48° 68° (ENE) 547 -3.5 -17.7°
